Volver al catálogo

IRIDE-MS1-EAG2-9

ActivoCienciaSSO
NORAD 68449·PAYLOAD·🇮🇹 Italy

Lanzado Mar 30, 2026 desde Vandenberg Space Force Base

Loading…

Próximos Pases (próximas 24 horas)

TLE

ActualizadoSource: Space-Track

Época: Sep 14, 2026, 07:42 UTC

1 68449U 26067AK  26257.32116815  .00005318  00000-0  25711-3 0  9997
2 68449  97.4605 214.4512 0005908 107.7627 252.4253 15.19025598 25460

Sigue IRIDE-MS1-EAG2-9 en tiempo real con AllMySat

Download on the App Store